Location: Val-d'Or
(48.1170°N, 77.7670°W)
Time: 02:22:29
(UTC-04:00)

Tiangong 2 - Visible Passes

Search period start: 26 May 2018 00:00
Search period end: 05 June 2018 00:00
Orbit: 382 x 385 km, 42.8° (Epoch: 25 May)

Date Brightness Start Highest point End Pass type
(mag) Time Alt. Az. Time Alt. Az. Time Alt. Az.
26 May 2.2 22:57:40 10° WSW 23:00:16 27° SSW 23:00:16 27° SSW visible
27 May 2.1 21:57:54 10° WSW 22:00:43 30° S 22:03:05 13° SE visible
27 May 3.6 23:34:47 10° WSW 23:35:16 12° WSW 23:35:16 12° WSW visible
28 May 2.5 22:34:46 10° WSW 22:37:18 22° SSW 22:38:01 20° S visible
29 May 2.3 21:34:54 10° WSW 21:37:38 27° S 21:40:22 10° SE visible
29 May 3.6 23:12:25 10° SW 23:12:56 11° SW 23:12:56 11° SW visible
30 May 3.0 22:11:59 10° WSW 22:14:09 17° SSW 22:15:40 13° SSE visible
01 Jun 3.5 21:49:34 10° SW 21:50:55 12° SSW 21:52:16 10° S visible
